Погода в Баханае

Россия / Республика Саха (Якутия)     66°01′00″N   123°39′17″E
темп.,
°C
ветер,
м/с
пор.,
м/с
влажн.,
%
обл.,
%
осадки,
мм/ч
давл.,
гПа
погр.,
м
27 февраля, сб
сб2700:00−39ююв1110023 0.0 103318
03:00−39ююв1110025 0.0 103218
06:00−37в119994 0.0 103119
09:00−37св009864 0.0 103119
12:00−31св119315 0.0 1030159
15:00−31ссв239530 0.0 1027166
18:00−33с239656 0.0 102766
21:00−32ссз369577 0.0 1025133
28 февраля, вс
вс2800:00−33сз3696100 0.0 1023134
03:00−32ссз4794100 0.0 1022231
06:00−31ссз3793100 0.0 1021280
09:00−31сз3694100 0.0 1021268
12:00−30сз3793100 0.0 1022335
15:00−28сз3692100 0.0 1022379
18:00−29сз1295100 0.0 102442
21:00−30сз1198100 0.1 102526
1 марта, пн
пн100:00−30вюв0098100 0.1 102519
03:00−30ю1199100 0.1 102525
06:00−30юз1199100 0.1 102526
09:00−29з1199100 0.2 102644
12:00−27зюз1292100 0.1 1025383
15:00−27з2292100 0.1 1025446
18:00−28з2297100 0.1 102663
21:00−30зюз229799 0.1 102619
2 марта, вт
вт200:00−32з229893 0.0 102719
03:00−32з119897 0.1 102619
06:00−33зсз119892 0.0 102619
09:00−33сз129894 0.1 102619
12:00−30ссз119499 0.0 1026275
15:00−28с1192100 0.0 1026355
18:00−31с1297100 0.0 102619
21:00−34ссз229991 0.0 102719
3 марта, ср
ср300:00−36ссз239962 0.0 102627
03:00−37сз239860 0.0 102644
06:00−37сз259773 0.0 102696
09:00−35ссз379686 0.0 1025273
12:00−33ссз3695100 0.0 1024336
15:00−32ссз3794100 0.0 1023420
18:00−33ссз3894100 0.0 1022457
21:00−33ссз31094100 0.0 1021507